Wind_Speed
30 29 29 28 27 27 27 27 26 25 24 24 23 23 24 23 23 23 22 22 22 22 22 22 22 22 22 22 22 22 22 22 22 22 22 22 23 23 23 23 23 23 23
31 31 29 29 28 28 27 27 27 27 26 25 25 24 23 24 23 23 23 24 24 24 24 24 24 24 24 25 25 25 25 25 25 25 24 25 25 25 25 25 25 25 25
33 32 32 30 30 29 29 28 28 28 28 27 27 26 25 25 25 25 25 25 25 25 25 25 25 25 26 26 26 27 27 27 26 27 27 27 27 27 27 27 27 27 28
33 33 32 32 31 31 30 30 29 29 28 28 27 27 27 27 27 26 26 26 26 26 26 26 26 26 26 26 27 27 27 27 27 28 29 29 29 29 29 29 29 29 29
34 34 33 32 32 32 31 31 30 30 29 28 28 28 28 27 28 28 27 27 27 28 28 28 28 27 27 27 28 28 28 29 29 30 30 30 31 31 31 31 31 31 31
35 35 35 33 33 33 32 32 32 31 31 30 29 29 29 29 29 29 29 28 28 28 29 29 29 29 29 29 29 30 30 30 31 31 30 30 31 31 31 32 32 32 32
36 36 36 34 34 34 34 33 33 33 32 32 31 31 31 30 30 30 31 30 30 30 30 30 30 30 30 30 30 30 31 31 32 32 32 32 32 32 33 33 33 34 34
37 37 36 36 35 35 35 34 34 34 34 33 33 33 32 32 32 32 32 32 32 32 31 31 31 31 31 31 31 31 32 33 33 33 33 34 34 34 34 35 35 35 35
37 37 37 37 36 36 36 36 35 35 34 34 33 33 33 33 33 33 33 33 33 33 33 33 33 33 33 33 33 33 33 34 35 35 35 35 36 36 36 37 37 37 36
39 38 38 37 37 37 37 36 36 36 35 35 34 34 34 34 33 34 34 34 34 34 34 34 34 35 34 35 35 35 35 36 36 37 37 37 38 38 38 39 38 38 38
40 38 38 38 37 37 37 36 36 37 36 36 36 35 35 34 34 35 34 34 35 35 35 35 36 36 36 36 37 37 37 37 37 38 38 39 39 39 40 40 40 39 40
41 40 39 39 38 38 38 37 37 37 37 37 36 36 36 35 35 36 36 36 36 36 36 36 37 37 37 38 38 38 38 38 38 38 38 39 40 39 40 41 41 41 41
42 42 41 40 39 39 39 38 38 38 38 38 38 37 38 37 37 37 37 37 37 37 37 37 38 38 38 39 38 39 39 39 39 39 39 39 40 40 41 41 42 42 42
44 43 43 42 41 40 39 39 39 39 39 39 39 38 38 38 38 38 38 38 38 38 38 38 39 39 39 39 40 40 40 40 40 40 40 40 41 42 42 42 43 43 43
45 45 44 43 43 41 39 39 39 39 39 39 40 39 39 39 39 39 39 39 39 39 39 39 39 39 40 40 41 41 41 41 42 41 41 41 42 43 43 44 44 44 44
46 45 45 44 44 43 41 40 39 40 40 41 41 41 40 40 40 40 40 40 40 41 40 40 40 41 41 41 41 42 42 43 43 44 43 43 43 44 44 45 45 45 46
47 46 46 46 45 43 42 41 41 41 41 42 41 42 42 42 42 42 42 42 41 41 41 41 41 42 42 42 42 43 43 44 44 45 45 45 45 45 45 45 46 46 47
48 47 47 47 46 45 44 44 43 43 43 43 42 42 42 42 43 43 43 43 43 43 43 42 42 43 43 44 44 44 45 46 46 46 46 46 46 47 47 47 47 47 47
49 49 48 48 47 46 46 45 44 44 44 44 44 44 43 44 44 44 44 44 44 45 45 44 44 44 45 45 45 46 46 47 47 47 47 47 48 48 48 48 48 48 47
49 49 49 48 47 47 47 46 46 46 45 45 45 45 44 44 44 44 45 44 44 45 45 45 45 45 46 46 46 47 47 48 48 48 48 48 48 48 48 48 48 48 47
51 51 50 49 48 48 48 48 47 46 46 46 46 45 46 46 45 45 45 45 45 45 45 46 46 45 45 46 46 47 47 48 48 48 49 49 49 48 47 47 47 47 47
52 52 52 51 50 49 48 48 48 47 47 47 47 47 47 47 47 47 47 46 46 46 46 46 46 46 45 46 46 47 47 48 48 48 49 48 48 48 48 48 47 47 47
53 53 53 52 51 50 50 50 49 48 48 48 48 48 48 48 48 48 48 47 47 47 47 47 46 46 46 46 47 48 47 48 48 48 48 48 48 48 49 48 47 47 47
54 54 53 53 52 51 51 51 50 50 49 49 49 49 49 49 49 48 48 48 48 48 48 48 48 47 48 48 48 48 48 48 48 48 48 48 48 48 48 47 48 48 48
54 54 54 54 53 53 52 52 51 51 50 50 50 50 49 49 49 50 49 49 49 49 49 49 49 48 48 48 49 49 49 48 48 48 48 48 47 47 47 47 48 49 49
55 54 54 54 54 53 53 53 52 52 52 51 51 50 50 49 49 49 49 49 48 49 49 48 48 48 48 48 49 49 48 48 48 48 48 48 47 47 47 47 48 49 50
Wind_Direction
239 239 238 238 239 239 240 240 241 243 245 248 250 250 250 252 254 255 256 257 257 258 260 262 264 266 269 271 273 275 277 280 281 281 282 283 284 284 285 286 285 286 288
240 240 239 239 239 240 240 241 243 244 246 248 250 252 252 253 255 257 257 258 259 260 262 263 265 267 269 271 272 274 276 279 280 279 280 281 283 282 283 285 285 285 286
240 240 240 240 240 241 242 244 245 246 248 250 251 252 253 253 255 257 259 260 261 262 263 265 266 267 269 271 272 274 277 278 279 279 279 280 281 281 281 282 283 284 284
240 240 240 241 242 243 244 245 246 247 248 249 251 252 253 254 255 257 259 260 261 263 264 266 266 268 270 271 272 275 277 279 280 281 281 281 280 281 280 281 283 284 283
240 240 240 242 242 242 244 245 247 247 248 250 252 253 255 255 256 257 258 260 262 264 265 266 267 268 270 271 273 275 276 279 280 281 281 282 282 281 281 282 283 283 283
240 240 241 242 242 243 244 245 247 248 249 251 253 255 255 256 257 258 259 261 263 265 266 267 267 268 270 272 273 275 277 278 279 280 281 282 283 283 282 283 283 283 284
239 239 240 242 243 243 244 245 247 249 250 251 254 255 256 257 258 259 260 262 263 265 267 268 269 269 271 272 274 276 277 278 279 281 281 282 282 282 282 282 283 283 283
239 240 240 242 243 244 244 245 247 249 251 252 254 255 256 257 258 260 261 263 264 266 268 269 270 271 271 272 274 276 277 278 280 280 281 282 281 281 281 282 282 282 282
238 239 240 242 244 245 245 245 248 250 251 252 254 256 256 257 259 260 261 263 264 266 268 269 270 272 272 273 274 276 278 279 280 280 281 282 282 282 281 281 282 281 282
237 238 240 242 243 244 244 246 248 250 251 252 253 256 258 259 259 260 262 263 265 266 268 269 270 273 274 274 275 278 279 280 280 280 280 281 282 282 281 281 282 282 282
237 238 241 243 243 243 244 247 249 249 251 252 254 256 258 259 260 261 261 263 265 267 269 270 271 272 274 275 276 277 279 280 281 281 280 280 281 281 281 282 282 282 282
238 240 241 242 243 244 245 248 249 249 251 253 254 256 257 259 260 261 262 263 265 267 268 270 272 273 273 275 276 277 279 280 281 282 281 281 281 282 282 282 283 282 282
239 241 242 242 244 245 246 249 250 251 252 253 255 256 258 260 261 262 263 264 265 267 269 271 273 273 274 275 276 278 279 280 281 282 282 282 282 283 283 284 283 282 282
240 241 242 243 244 245 247 249 251 252 253 254 255 257 258 260 262 263 264 265 266 268 270 272 274 274 275 275 276 277 278 279 281 282 282 283 283 283 284 285 284 283 283
241 242 242 242 243 244 247 250 251 253 254 255 256 257 259 261 263 264 264 265 266 268 270 272 274 274 275 276 276 277 278 279 281 281 282 282 283 283 284 284 284 283 283
240 241 241 242 242 245 248 250 252 253 255 256 257 257 259 261 263 264 265 266 268 269 270 272 273 273 275 276 277 278 279 279 281 282 282 282 283 284 284 284 284 284 283
239 241 242 242 243 246 249 252 252 253 255 257 258 259 260 261 262 264 265 266 267 269 271 272 272 273 274 276 278 279 279 280 281 282 282 282 283 283 284 285 284 284 284
240 241 242 243 244 246 249 251 252 254 255 257 258 259 260 261 263 264 265 266 267 269 270 271 272 273 275 276 278 279 279 279 281 283 282 282 282 283 283 284 285 284 284
240 241 242 244 246 248 250 251 253 254 256 257 258 259 260 262 263 264 265 266 267 269 270 271 273 273 275 277 278 279 279 280 282 283 283 282 283 283 283 283 284 284 285
241 243 244 245 246 248 250 251 253 255 256 257 258 259 260 262 263 264 265 267 268 269 270 272 273 275 276 276 277 279 280 280 282 283 283 283 283 283 283 283 284 285 285
242 243 244 246 248 249 251 253 254 256 257 258 259 260 261 262 263 265 266 267 268 269 271 272 273 275 276 277 278 279 280 281 282 283 283 283 283 283 283 283 284 284 284
242 243 244 246 247 249 251 253 254 256 257 259 259 260 261 262 263 265 266 267 268 269 271 272 273 274 275 277 279 280 281 281 281 282 283 283 284 283 283 283 284 284 285
243 244 245 247 248 250 252 253 254 255 257 258 259 260 261 263 264 265 266 267 268 270 271 273 275 275 276 277 278 279 280 281 281 282 282 283 284 283 283 283 283 284 285
243 244 246 247 248 250 252 254 255 256 257 258 259 260 261 262 264 265 265 266 267 269 271 272 274 275 276 277 278 279 281 281 281 282 283 283 283 283 283 283 283 285 286
244 245 246 248 249 251 252 253 255 256 257 259 260 261 262 263 264 265 265 266 267 269 271 272 273 275 276 276 277 279 280 280 281 282 283 283 283 283 283 283 284 285 286
245 246 247 249 250 251 252 253 254 256 257 259 260 261 262 263 263 264 266 267 268 269 270 270 272 274 275 276 277 279 280 280 281 282 283 283 283 283 283 284 284 285 285
Height
5823 5825 5827 5829 5831 5833 5835 5837 5838 5840 5841 5842 5844 5845 5846 5847 5848 5848 5849 5850 5850 5851 5851 5851 5851 5852 5852 5851 5851 5851 5851 5850 5849 5848 5848 5847 5846 5845 5844 5844 5843 5842 5841
5817 5819 5821 5824 5826 5828 5830 5831 5833 5835 5836 5837 5839 5840 5841 5842 5843 5844 5844 5845 5845 5846 5846 5846 5847 5847 5847 5847 5846 5846 5846 5845 5844 5843 5842 5842 5841 5840 5839 5838 5838 5837 5836
5810 5813 5815 5818 5820 5822 5824 5826 5828 5829 5831 5832 5833 5835 5836 5837 5838 5838 5839 5840 5840 5841 5841 5841 5841 5841 5841 5841 5841 5841 5840 5840 5839 5838 5837 5836 5835 5834 5834 5833 5832 5831 5830
5804 5806 5809 5811 5814 5816 5818 5820 5822 5824 5825 5826 5828 5829 5830 5831 5832 5833 5834 5834 5835 5835 5836 5836 5836 5836 5836 5836 5835 5835 5835 5834 5833 5832 5831 5830 5829 5829 5828 5827 5826 5825 5824
5797 5799 5802 5805 5807 5809 5812 5814 5816 5817 5819 5821 5822 5823 5824 5825 5826 5827 5828 5829 5829 5830 5830 5830 5830 5830 5830 5830 5830 5829 5829 5828 5827 5826 5825 5824 5823 5822 5822 5821 5820 5819 5818
5789 5792 5795 5798 5800 5803 5805 5807 5809 5811 5812 5814 5816 5817 5818 5819 5820 5821 5822 5822 5823 5823 5824 5824 5824 5824 5824 5824 5823 5823 5822 5821 5820 5819 5818 5818 5817 5816 5815 5814 5813 5812 5811
5782 5785 5788 5790 5793 5795 5798 5800 5802 5804 5805 5807 5809 5810 5811 5812 5813 5814 5815 5816 5816 5817 5817 5817 5818 5818 5818 5817 5817 5816 5816 5814 5813 5812 5811 5811 5810 5809 5808 5807 5806 5805 5803
5774 5777 5780 5783 5786 5788 5790 5793 5795 5797 5798 5800 5802 5802 5804 5806 5806 5807 5808 5809 5809 5810 5810 5811 5811 5811 5811 5810 5810 5809 5809 5808 5806 5805 5804 5803 5802 5801 5800 5799 5798 5797 5795
5765 5769 5772 5775 5777 5780 5783 5785 5787 5789 5791 5793 5794 5796 5797 5798 5799 5800 5800 5801 5802 5802 5803 5803 5803 5803 5803 5803 5803 5802 5801 5800 5799 5798 5797 5796 5795 5793 5792 5791 5790 5788 5787
5757 5761 5764 5766 5769 5772 5774 5777 5779 5781 5783 5785 5786 5788 5789 5790 5791 5792 5793 5793 5794 5794 5795 5795 5795 5795 5795 5795 5795 5794 5793 5792 5791 5790 5789 5787 5786 5785 5784 5782 5781 5779 5778
5749 5752 5755 5758 5761 5763 5766 5769 5771 5773 5775 5777 5779 5780 5781 5782 5783 5784 5785 5786 5786 5787 5787 5787 5787 5787 5787 5786 5786 5785 5784 5783 5782 5781 5780 5779 5777 5776 5775 5773 5772 5770 5768
5741 5744 5747 5750 5753 5755 5758 5761 5763 5765 5767 5769 5771 5772 5774 5775 5776 5776 5777 5778 5778 5778 5778 5779 5778 5778 5778 5778 5777 5776 5775 5775 5773 5772 5771 5769 5768 5766 5765 5764 5762 5760 5759
5732 5735 5738 5741 5744 5747 5749 5752 5754 5757 5758 5760 5762 5764 5765 5767 5767 5768 5769 5769 5770 5770 5770 5770 5770 5769 5769 5768 5768 5767 5766 5765 5764 5763 5761 5760 5758 5757 5755 5754 5752 5750 5749
5722 5726 5729 5733 5736 5738 5741 5744 5746 5748 5750 5752 5754 5755 5757 5758 5759 5759 5760 5760 5761 5761 5761 5761 5761 5760 5760 5759 5759 5758 5757 5756 5755 5753 5752 5750 5749 5747 5745 5744 5742 5740 5738
5712 5716 5720 5723 5726 5729 5732 5735 5737 5739 5741 5743 5745 5746 5748 5749 5750 5750 5751 5752 5752 5752 5752 5752 5751 5751 5750 5750 5749 5748 5747 5746 5744 5743 5742 5740 5738 5737 5735 5733 5731 5729 5727
5702 5706 5710 5713 5717 5720 5723 5726 5728 5730 5732 5734 5735 5737 5738 5740 5740 5741 5742 5742 5742 5743 5743 5743 5742 5741 5741 5740 5739 5738 5736 5735 5734 5732 5731 5729 5728 5726 5724 5722 5720 5718 5716
5692 5696 5700 5703 5707 5710 5713 5716 5718 5720 5722 5724 5726 5727 5729 5730 5731 5732 5732 5733 5733 5733 5733 5733 5732 5732 5731 5730 5729 5728 5726 5725 5723 5721 5720 5718 5716 5715 5713 5711 5708 5706 5704
5681 5686 5689 5693 5697 5700 5703 5706 5708 5711 5712 5714 5716 5717 5719 5720 5721 5721 5722 5723 5723 5723 5723 5723 5722 5722 5721 5720 5718 5717 5716 5714 5712 5710 5708 5706 5705 5703 5701 5699 5696 5694 5691
5671 5675 5679 5683 5687 5690 5693 5696 5698 5700 5702 5704 5706 5707 5708 5709 5710 5711 5711 5712 5712 5712 5712 5712 5712 5711 5710 5709 5708 5706 5705 5703 5701 5699 5697 5695 5693 5691 5689 5687 5684 5682 5679
5660 5664 5668 5672 5676 5679 5682 5685 5687 5689 5691 5693 5695 5696 5697 5699 5699 5700 5701 5701 5701 5701 5701 5701 5701 5700 5699 5698 5697 5695 5694 5692 5690 5687 5685 5683 5681 5678 5676 5674 5673 5670 5667
5648 5652 5657 5661 5664 5668 5671 5674 5676 5678 5680 5682 5684 5685 5686 5687 5688 5689 5690 5690 5690 5690 5690 5690 5689 5689 5688 5687 5686 5684 5682 5680 5678 5676 5673 5671 5669 5667 5664 5662 5659 5657 5655
5636 5641 5645 5649 5653 5656 5659 5662 5664 5666 5668 5670 5672 5674 5675 5676 5677 5678 5678 5679 5679 5679 5679 5678 5678 5678 5677 5675 5674 5672 5670 5668 5667 5665 5662 5659 5657 5654 5652 5650 5647 5645 5642
5624 5629 5633 5637 5641 5644 5647 5650 5652 5654 5656 5658 5660 5662 5663 5664 5665 5666 5666 5667 5667 5667 5667 5667 5666 5666 5665 5664 5662 5660 5658 5656 5655 5653 5650 5648 5644 5642 5639 5637 5634 5632 5630
5612 5616 5621 5624 5628 5632 5635 5637 5639 5642 5644 5646 5648 5650 5651 5652 5653 5654 5654 5655 5655 5655 5655 5655 5654 5654 5652 5651 5649 5648 5646 5644 5642 5640 5637 5636 5633 5630 5627 5624 5622 5619 5617
5599 5603 5608 5611 5615 5619 5621 5624 5626 5629 5631 5634 5635 5637 5638 5640 5641 5641 5642 5643 5643 5643 5642 5642 5641 5640 5640 5638 5637 5635 5633 5631 5630 5628 5625 5623 5621 5618 5615 5612 5609 5606 5603
5586 5590 5594 5598 5602 5605 5608 5611 5613 5616 5618 5621 5623 5624 5626 5627 5628 5628 5629 5629 5630 5630 5629 5629 5629 5628 5627 5626 5624 5623 5621 5619 5617 5615 5613 5610 5608 5605 5603 5601 5597 5594 5590